Location: Plymouth
(43.7570°N, 71.6890°W)
Time: 02:36:26
(UTC-04:00)

Daily predictions for brighter satellites

Satellite Brightness Start Highest point End
(mag) Time Altitude Azimuth Time Altitude Azimuth Time Altitude Azimuth
Cosmos 2074 Rocket 4.3 00:08:02 64° N 00:08:02 64° N 00:13:18 10° N
COSMOS 2455 3.3 00:01:39 10° NNW 00:06:24 57° NNW 00:06:24 57° NNW
Cosmos 2333 Rocket 3.6 00:07:43 31° WNW 00:08:31 32° NW 00:13:34 10° N
Cosmos 1943 Rocket 4.4 00:06:12 10° N 00:09:20 15° NE 00:10:50 14° ENE
Terra 4.4 00:12:27 13° WNW 00:12:27 13° WNW 00:13:44 10° WNW
Nadezhda 3 Rocket 4.5 00:09:41 10° N 00:14:58 56° NE 00:14:58 56° NE
Cosmos 2237 Rocket 3.5 00:27:23 33° NW 00:27:27 33° NW 00:32:31 10° N
Cosmos 2369 Rocket 3.6 00:24:08 10° N 00:28:53 32° NE 00:28:53 32° NE
Mayak 1.3 01:10:31 10° N 01:11:52 19° N 01:11:52 19° N
CENTAUR R/B 4.1 01:12:22 10° NW 01:17:31 32° W 01:17:31 32° W
Lacrosse 5 4.5 01:16:56 10° NW 01:20:26 18° N 01:23:55 10° NE
CZ-2C R/B 4.5 01:19:34 10° NNW 01:23:14 22° NW 01:23:14 22° NW
USA 215 3.6 01:31:04 56° WNW 01:31:04 56° WNW 01:36:06 10° NW
SL-8 Rocket 4.3 01:35:18 60° NNW 01:35:18 60° NNW 01:40:27 10° N
SL-16 R/B 3.9 01:35:36 24° NW 01:35:49 24° NW 01:40:20 10° N
ADEOS Rocket 4.1 01:38:12 10° NNE 01:42:17 30° E 01:42:17 30° E
Cosmos 2218 Rocket 4.3 01:45:01 65° NNW 01:45:01 65° NNW 01:50:33 10° N
Resurs 1-4 Rocket 4.3 01:45:23 10° NE 01:48:15 15° E 01:48:27 15° E
SL-16 R/B 4.1 01:48:13 20° ESE 01:51:07 29° ENE 01:56:18 10° N
Cosmos 1943 Rocket 3.0 01:48:27 10° NNW 01:52:18 46° NNW 01:52:18 46° NNW
CZ-2D R/B 3.9 02:01:37 10° NE 02:05:37 21° E 02:05:56 21° E
Cosmos 2369 Rocket 3.7 02:08:02 10° NW 02:10:39 26° NW 02:10:39 26° NW
Cosmos 1943 3.9 02:26:52 44° NW 02:26:52 44° NW 02:31:51 10° NNE
Cosmos 2221 4.1 02:30:37 32° ENE 02:30:37 32° ENE 02:33:46 10° NNE
BREEZE-M DEB (TANK) 4.3 02:33:30 25° ENE 02:33:30 25° ENE 02:35:47 10° ENE
Cosmos 540 Rocket 3.9 02:33:40 55° ENE 02:33:40 55° ENE 02:38:02 10° NNE
Cosmos 1763 Rocket 4.3 02:35:40 43° NNW 02:35:40 43° NNW 02:39:37 10° N
Cosmos 1535 Rocket 4.5 02:35:43 73° SE 02:36:14 77° E 02:42:38 10° N
CBERS-1 4.2 02:34:40 10° NNE 02:39:18 68° NE 02:39:18 68° NE
AQUA 4.2 02:38:25 10° NNE 02:42:30 61° NE 02:42:30 61° NE
Cosmos 1726 4.4 02:47:58 20° E 02:47:58 20° E 02:50:27 10° NE
UNK 4.1 02:51:40 62° NE 02:51:40 62° NE 02:55:48 10° N
Cosmos 2098 Rocket 3.5 02:52:43 88° ENE 02:52:43 88° ENE 02:57:35 10° N
Cosmos 304 Rocket 4.4 02:57:18 46° NNW 02:57:18 46° NNW 03:01:14 10° NNE
Cosmos 2285 Rocket 4.4 02:58:36 45° SSE 03:00:09 56° ESE 03:06:24 10° NNE
Cosmos 1125 Rocket 3.8 02:55:58 10° NNW 03:00:09 54° NW 03:00:09 54° NW
Lacrosse 5 3.6 03:00:13 10° NW 03:04:46 32° NNE 03:09:19 10° E
SL-08 R/B 4.2 03:06:43 38° NW 03:06:43 38° NW 03:09:57 10° NNW
Sich 1 4.1 03:03:28 10° N 03:07:40 43° ENE 03:08:38 37° ESE
UNKNOWN OBJECT B 4.4 03:04:21 10° NE 03:07:56 29° E 03:08:26 28° ESE
USA 229 DEB 3.7 03:00:49 10° NW 03:08:00 79° WSW 03:15:18 10° SSE
USA 229 3.7 03:00:56 10° NW 03:08:06 79° WSW 03:15:24 10° SSE
NPP 3.8 03:03:54 10° N 03:09:11 58° WNW 03:09:18 57° WNW
IRS-1C 4.0 03:03:58 10° NNE 03:09:19 78° WNW 03:09:39 75° WSW
ERS-1 4.4 03:04:51 10° NNE 03:09:50 77° ESE 03:10:10 72° SE
BREEZE M DEB (TANK) 2.9 03:10:46 61° ESE 03:10:46 61° ESE 03:17:24 10° ESE
Cosmos 1400 Rocket 3.7 03:08:52 10° N 03:11:35 43° N 03:11:35 43° N
Helios 1A Rocket 4.4 03:10:14 10° N 03:12:47 28° NW 03:12:47 28° NW
Cosmos 2123 Rocket 4.0 03:19:06 10° NNW 03:25:15 59° W 03:26:21 52° SW
COSMOS 2406 3.1 03:25:16 60° SW 03:26:20 80° WNW 03:32:04 10° NNE
Cosmos 1821 Rocket 4.5 03:26:21 40° W 03:27:05 41° WNW 03:32:56 10° N
Resurs 1-4 Rocket 2.0 03:23:24 10° N 03:28:39 74° WNW 03:29:31 60° SW
ADEOS Rocket 3.5 03:23:43 10° N 03:28:40 35° WNW 03:29:14 35° W
SL-16 R/B 2.7 03:33:19 46° SW 03:34:26 52° W 03:40:29 10° NNW
Cosmos 1934 Rocket 4.3 03:37:08 40° W 03:38:07 43° WNW 03:43:54 10° N
Cosmos 1908 4.3 03:39:45 32° NW 03:39:45 32° NW 03:42:29 10° N
Cosmos 1633 Rocket 3.1 03:34:44 10° N 03:39:08 77° E 03:40:27 44° SSE
ARIANE 5 R/B 2.5 03:35:26 10° N 03:40:40 69° WNW 03:41:55 50° SW
NOSS 3-1 (C) 4.0 03:34:05 10° NW 03:41:40 89° ENE 03:50:06 10° SE
Cosmos 2228 Rocket 4.1 03:39:27 24° SSE 03:41:43 43° E 03:45:56 10° NNE
Cosmos 1300 2.8 03:43:27 62° SSE 03:43:55 72° E 03:47:44 10° NNE
CZ-2D R/B 2.3 03:40:48 10° N 03:46:01 53° WNW 03:47:15 43° WSW
Cosmos 1605 Rocket 4.4 03:53:59 35° WSW 03:56:07 47° WNW 04:02:17 10° N
SL-27 R/B 2.6 03:58:50 52° WNW 03:58:50 52° WNW 04:02:05 10° N
Cosmos 1455 4.4 03:57:05 10° SE 04:00:04 23° E 04:03:03 10° NE
Cosmos 1328 Rocket 3.5 04:00:51 34° S 04:02:40 85° E 04:07:03 10° N
Cosmos 2061 Rocket 4.2 03:58:52 15° S 04:04:18 76° E 04:10:43 10° N
MOS 1 Rocket 3.8 04:02:30 10° N 04:06:30 36° WNW 04:07:17 33° W
Cosmos 2221 4.0 04:07:31 21° WNW 04:07:31 21° WNW 04:10:49 10° NNW
IRS-1D 4.4 04:04:18 10° N 04:08:55 34° WNW 04:10:29 28° W
Cosmos 546 4.5 04:11:07 47° WSW 04:12:09 90° SW 04:16:01 10° ENE
Cosmos 2082 Rocket 3.2 04:07:32 12° S 04:12:27 43° ESE 04:17:44 10° NE
Cosmos 773 Rocket 4.0 04:10:42 27° SSW 04:13:41 89° WNW 04:19:02 10° NNE
Cosmos 1666 Rocket 4.2 04:09:45 10° NNW 04:13:50 36° W 04:14:34 34° WSW
Cosmos 2016 Rocket 4.1 04:09:14 10° S 04:15:18 73° E 04:21:23 10° NNE
ADEOS II 2.7 04:10:30 10° NNE 04:15:40 55° E 04:20:49 10° S
Cosmos 1315 Rocket 3.7 04:15:06 10° NNW 04:18:34 29° W 04:18:34 29° W
Cosmos 1933 Rocket 3.5 04:18:16 10° N 04:22:45 81° W 04:27:11 10° S
Cosmos 1726 3.3 04:22:36 25° W 04:22:49 25° WNW 04:25:59 10° NNW
PSLV R/B 3.7 04:25:14 36° SSW 04:25:20 36° SSW 04:28:20 10° SE
ADEOS 4.5 04:21:26 10° N 04:26:03 33° WNW 04:28:18 23° WSW
COSMOS 2487 3.1 04:25:53 17° S 04:28:23 53° ESE 04:31:52 10° NNE
Meteor 2-3 Rocket 3.8 04:23:39 10° N 04:29:20 86° E 04:35:02 10° S
Cosmos 1725 Rocket 4.3 04:23:20 10° S 04:29:26 66° E 04:35:34 10° NNE
CZ-4B R/B 4.4 04:24:51 10° NNE 04:30:00 40° E 04:35:01 10° SSE
Tiangong 2 2.2 04:30:19 26° SSW 04:31:13 32° SSE 04:34:08 10° E
Cosmos 1151 Rocket 2.9 04:28:07 17° S 04:31:23 82° W 04:35:41 10° N
Cosmos 2100 Rocket 4.2 04:29:51 18° SSW 04:34:39 55° WNW 04:40:54 10° N
Cosmos 1802 Rocket 4.0 04:29:13 13° SSW 04:34:45 69° W 04:41:03 10° N
PSLV R/B 4.2 04:31:00 10° NNE 04:35:10 70° ESE 04:39:16 10° S
CZ-2D R/B 4.4 04:36:42 10° N 04:40:09 28° WNW 04:41:45 21° WSW
Cosmos 2369 3.7 04:35:16 10° NNW 04:40:51 64° WSW 04:46:25 10° S
Cosmos 1656 3.6 04:35:21 10° NNW 04:41:05 82° WSW 04:46:46 10° SSE
Cosmos 1892 2.6 04:37:33 10° NNW 04:41:22 68° W 04:45:11 10° S
Okean O Rocket 2.2 04:37:08 10° NNE 04:41:32 59° E 04:45:51 10° S
UNKNOWN OBJECT B 4.2 04:39:00 10° NNW 04:42:18 24° WNW 04:43:54 19° WSW
Shenzhou-11 Module 2.5 04:43:41 26° SW 04:45:05 47° SSE 04:48:05 10° E
Lacrosse 5 1.8 04:43:02 10° NW 04:48:05 66° SW 04:53:05 10° SE
Cosmos 192 4.3 04:43:47 12° SSW 04:48:27 86° WNW 04:53:27 10° NNE
Cosmos 1825 3.8 04:47:58 10° N 04:51:34 39° ENE 04:55:08 10° SSE
Tsikada Rocket 4.0 04:47:09 10° N 04:53:29 85° W 04:59:52 10° S
Cosmos 1408 3.9 04:51:10 10° N 04:54:40 43° ENE 04:58:07 10° SSE
Meteor 1-27 4.3 04:51:27 10° SSW 04:57:02 61° WNW 05:02:35 10° N
ATLAS 2AS CENTAUR R/B 3.9 04:49:47 10° NNW 04:57:41 54° NE 05:05:03 10° ESE
CZ-4B R/B 3.1 04:56:06 10° N 05:00:34 72° WNW 05:05:05 10° SSW
NOSS 3-1 (A) 4.4 04:56:42 10° NW 05:03:55 44° WSW 05:11:45 10° S
Cosmos 1371 Rocket 4.4 04:59:26 10° NNW 05:04:41 72° ENE 05:09:56 10° SSE
Cosmos 1833 Rocket 2.7 05:01:32 10° SSW 05:07:10 73° WNW 05:12:50 10° NNE
Resurs 1-4 Rocket 4.1 05:06:05 10° NW 05:07:34 11° NW 05:09:02 10° WNW
Cosmos 923 Rocket 4.4 05:09:00 10° SW 05:14:00 46° WNW 05:19:04 10° N
OE (NEXTSAT) 4.5 05:10:50 11° WSW 05:14:12 80° NNW 05:17:47 10° ENE
Cosmos 1624 Rocket 4.2 05:15:21 10° NNW 05:20:39 81° ENE 05:25:53 10° SSE
Cosmos 1980 Rocket 2.2 05:16:33 10° NNW 05:22:12 90° ENE 05:27:50 10° SSE
USA 234 4.3 05:20:54 10° ENE 05:27:06 43° SE 05:33:15 10° SSW
Cosmos 1869 Rocket 3.7 05:24:06 10° NNW 05:28:29 55° W 05:32:49 10° S
IRS-1C Rocket 4.2 05:25:42 10° N 05:30:56 65° WNW 05:36:08 10° SSW
Cosmos 1680 Rocket 4.1 05:27:18 10° SW 05:32:18 42° WNW 05:37:22 10° N
Timation 2 Rocket 4.0 05:26:53 10° SSW 05:32:52 84° ESE 05:39:05 10° NNE
